CDT,Max TemperatureF,Mean TemperatureF,Min TemperatureF,Max Dew PointF,MeanDew PointF,Min DewpointF,Max Humidity, Mean Humidity, Min Humidity, Max Sea Level PressureIn, Mean Sea Level PressureIn, Min Sea Level PressureIn, Max VisibilityMiles, Mean VisibilityMiles, Min VisibilityMiles, Max Wind SpeedMPH, Mean Wind SpeedMPH, Max Gust SpeedMPH,PrecipitationIn, CloudCover, Events, WindDirDegrees
2013-8-1,86,77,68,70,65,61,94,71,43,30.04,30.00,29.97,10,8,0,13,3,17,0.00,4,Fog-Thunderstorm,349
2013-8-2,86,74,62,66,60,52,94,67,31,30.07,30.03,30.00,10,8,2,5,0,,0.00,0,,65
2013-8-3,78,72,66,70,66,63,94,80,57,30.11,30.06,30.01,10,9,1,13,1,17,0.44,2,Rain-Thunderstorm,181
2013-8-4,86,77,68,72,65,59,94,72,42,30.11,30.08,30.04,10,7,0,14,2,17,0.00,4,Fog,358
2013-8-5,80,72,64,64,60,52,88,67,37,30.10,30.05,30.00,10,10,10,6,1,,0.00,1,,348
2013-8-6,80,74,69,72,68,64,94,81,65,30.03,29.99,29.96,10,9,1,9,1,,0.89,5,Rain-Thunderstorm,186
2013-8-7,86,78,69,72,69,66,94,83,55,30.03,30.00,29.96,10,10,0,12,1,22,0.74,4,Rain-Thunderstorm,147
2013-8-8,87,78,69,72,68,64,94,80,55,30.04,30.00,29.97,10,10,1,20,2,26,0.95,2,Rain-Thunderstorm,150
2013-8-9,89,79,69,73,69,64,94,79,46,30.09,30.04,30.01,10,9,5,16,2,21,0.02,2,Rain-Thunderstorm,183
2013-8-10,82,76,69,73,70,68,94,84,66,30.15,30.11,30.07,10,8,1,12,2,,0.04,2,Rain-Thunderstorm,223
2013-8-11,87,78,69,70,68,64,94,76,46,30.17,30.13,30.08,10,10,3,20,2,26,0.61,2,Rain-Thunderstorm,215
2013-8-12,87,78,69,72,69,64,94,78,46,30.13,30.07,29.99,10,9,4,16,2,25,0.17,2,Rain-Thunderstorm,236
2013-8-13,82,76,71,70,68,63,88,77,51,30.02,29.98,29.93,10,10,7,10,4,,0.00,4,,305
2013-8-14,80,71,62,64,59,52,88,66,39,30.06,30.02,29.97,10,9,0,13,5,17,0.00,2,,9
2013-8-15,77,67,57,61,58,54,88,72,54,30.07,30.05,30.02,10,10,7,9,3,,0.00,3,,112
2013-8-16,71,66,62,61,58,55,88,73,57,30.11,30.08,30.04,10,10,10,8,1,,0.00,8,,133
2013-8-17,69,66,64,61,60,57,88,78,64,30.14,30.10,30.07,10,10,4,5,1,,0.00,8,Rain,129
2013-8-18,75,70,64,66,63,61,94,80,61,30.19,30.13,30.10,10,9,2,9,1,,0.03,7,Rain,189
2013-8-19,80,71,62,68,64,61,94,78,54,30.14,30.10,30.05,10,9,4,8,1,,0.01,4,Rain-Thunderstorm,105
2013-8-20,86,76,66,70,67,63,94,77,48,30.16,30.11,30.08,10,8,2,9,2,,0.14,4,Rain,144
2013-8-21,80,74,68,70,68,64,94,82,61,30.21,30.16,30.12,10,9,1,9,2,,0.12,3,Rain-Thunderstorm,138
2013-8-22,87,76,66,70,66,63,94,78,43,30.19,30.13,30.06,10,10,2,8,1,,0.24,2,Rain-Thunderstorm,187
2013-8-23,87,78,68,73,66,61,94,74,40,30.12,30.07,30.01,10,8,0,8,0,,0.00,3,Fog-Thunderstorm,38
2013-8-24,87,78,68,70,65,61,94,72,40,30.23,30.15,30.08,10,8,2,6,1,,0.00,1,,136
2013-8-25,84,75,64,66,61,55,88,65,37,30.34,30.29,30.24,10,10,7,10,3,17,0.00,1,,131
2013-8-26,82,71,60,64,58,52,94,68,35,30.33,30.26,30.18,10,10,5,5,0,,0.00,1,,120
2013-8-27,86,73,60,66,60,55,94,70,35,30.19,30.14,30.07,10,9,1,7,0,,0.00,1,,345
2013-8-28,87,74,62,68,64,59,94,72,40,30.11,30.07,30.02,10,8,0,7,0,,0.00,2,Fog,317
2013-8-29,89,76,64,70,65,61,94,68,38,30.09,30.03,29.99,10,8,1,10,2,,0.00,1,,319
2013-8-30,89,79,69,72,68,63,94,75,40,30.04,29.98,29.94,10,8,1,12,1,24,0.54,2,Rain-Thunderstorm,295
2013-8-31,91,81,71,72,67,59,94,71,34,29.98,29.93,29.88,10,9,3,14,1,17,0.00,2,Thunderstorm,291